User: anonymous   Login
Location: Unspecified
(0.0000°N, 0.0000°E)
Time: 02:46:54
(UTC+00:00)
Language:

LES 5 - Orbit

View from above orbital plane
View from above orbital plane
View from above satellite
View from above satellite

Ground track
Ground track

The orbit data is extracted from the following two-line orbital elements,

1  2866U 67066E   18113.63672132 -.00000085 +00000-0 +00000-0 0  9995
2  2866 004.4845 289.3291 0054577 327.6118 011.2752 01.09425106098451
Epoch (UTC): 23 April 2018 15:16:52
Eccentricity: 0.0054577
inclination: 4.4845°
perigee height: 33184 km
apogee height: 33618 km
right ascension of ascending node: 289.3291°
argument of perigee: 327.6118°
revolutions per day: 1.09425106
mean anomaly at epoch: 11.2752°
orbit number at epoch: 9845

The dashed part of the orbit path shows where the satellite is in the earth's shadow,  

DLR